Regional Weather Roundup
Issued by NWS

Home | Current Version | Previous Version | Text Only | Print | Product List | Glossary On
Versions: 1 2 3 4 5 6 7 8 9 10 11 12 13 14 15 16 17 18 19 20 21 22 23 24 25 26 27 28
000
ASUS46 KPQR 261610
RWROR

OREGON REGIONAL WEATHER ROUNDUP
NATIONAL WEATHER SERVICE PORTLAND OR
900 AM PDT TUE JUL 26 2016

NOTE: "FAIR" INDICATES FEW OR NO CLOUDS BELOW 12,000 FEET WITH
NO SIGNIFICANT WEATHER AND/OR OBSTRUCTIONS TO VISIBILITY.

ORZ001>013-261700-
NORTHWEST OREGON


CITY           SKY/WX    TMP DP  RH WIND       PRES   REMARKS
ASTORIA        CLOUDY    63  54  72 N9        30.20R
NEWPORT        CLOUDY    61  55  82 NW8       30.20F
PORTLAND       CLOUDY    63  54  72 N8        30.18R
VANCOUVER WA   CLOUDY    62  54  74 NW9       30.18R
SCAPPOOSE      CLOUDY    63  53  70 NW3       30.17S
HILLSBORO      MOSUNNY   65  54  67 NE5       30.17S
AURORA         CLOUDY    63  55  75 N8        30.18S
MCMINNVILLE    SUNNY     65  54  67 N7        30.18S
SALEM          CLOUDY    64  55  72 N7        30.16S
CORVALLIS        N/A     64  55  72 N5        30.17S
EUGENE         MOSUNNY   66  55  67 NE10      30.16S
$$

ORZ021-028-261700-
SOUTHWEST OREGON


CITY           SKY/WX    TMP DP  RH WIND       PRES   REMARKS
NORTH BEND     CLOUDY    61  55  82 N7        30.17R
BROOKINGS      PTSUNNY   57  55  93 CALM      30.01F FOG
ROSEBURG       CLOUDY    63  55  75 N7        30.15R
SEXTON SUMMIT  SUNNY     63  54  72 NE8       30.18S
MEDFORD        SUNNY     72  55  55 CALM      30.10F
$$

ORZ014>016-041-261700-
COLUMBIA GORGE


CITY           SKY/WX    TMP DP  RH WIND       PRES   REMARKS
TROUTDALE      CLOUDY    63  55  75 NW5       30.18R
THE DALLES     SUNNY     73  55  53 NW24G32   30.01S
$$

ORZ029>031-041-044-049-050-061>064-502-503-505>511-261700-
EASTERN OREGON


CITY           SKY/WX    TMP DP  RH WIND       PRES   REMARKS
REDMOND        SUNNY     71  50  47 VRB3      30.14F
BEND           SUNNY     70  52  52 CALM      30.16S
PRINEVILLE     SUNNY     70  54  56 CALM      30.16R
KLAMATH FALLS  SUNNY     69  53  56 N9        30.18S
LAKEVIEW       SUNNY    N/A N/A N/A CALM      30.22S
HERMISTON      SUNNY     81  56  42 W9        29.99S
PENDLETON      SUNNY     79  52  38 W14       30.03S
JOHN DAY       SUNNY     74  47  38 CALM      30.15S
MEACHAM        SUNNY     71  48  43 VRB3      30.14S
LA GRANDE      SUNNY     79  48  34 NW17      30.07S
BAKER CITY     SUNNY     74  53  48 VRB6      30.10S
BURNS          SUNNY     72  42  34 VRB3      30.15S
ROME             N/A     85  34  16 CALM      30.10S
ONTARIO        MOSUNNY   88  46  23 NW13      29.99R
$$




USA.gov is the U.S. government's official web portal to all federal, state and local government web resources and services.